New Ulm, MN

11:36 PM CST on December 07, 2019 (GMT -0600)
New Ulm Municipal

Weather History for KULM - October, 2019

Change the Weather History Date:

Tuesday, October 1, 2019

  Actual Average Record
Temperature  
Mean Temperature 52 °F -  
Max Temperature 55 °F 71 °F 90 °F (1963)
Min Temperature 48 °F 45 °F 24 °F (2003)
Degree Days  
Heating Degree Days 14    
Growing Degree Days 2 (Base 50)    
Moisture  
Dew Point 48 °F    
Average Humidity 92    
Maximum Humidity 100    
Minimum Humidity 87    
Precipitation  
Precipitation 0.01 in - - ()
Sea Level Pressure  
Sea Level Pressure 29.99 in    
Wind  
Wind Speed 10 mph ()    
Max Wind Speed 18 mph    
Max Gust Speed 22 mph    
Visibility 9.6 miles    
Events Rain , Thunderstorm    
Averages and records for this station are not official NWS values.
T = Trace of Precipitation, MM = Missing Value Source: Averaged Metar Reports

Daily Weather History Graph

Daily Weather History Graph

Search for Another Location

Airport or City:

Astronomy

Oct. 01, 2019 Rise Set
Actual Time 7:15 AM CDT 6:59 PM CDT
Civil Twilight 6:46 AM CDT 7:27 PM CDT
Nautical Twilight 6:12 AM CDT 8:01 PM CDT
Astronomical Twilight 5:38 AM CDT 8:35 PM CDT
Moon 10:39 AM CDT (10/1) 9:05 PM CDT (10/1)
Length of Visible Light 12h 41m
Length of Day
11h 43m
Waxing Crescent, 12% of the Moon is Illuminated
Oct 1
Waxing Crescent
Oct 5
First Quarter
Oct 13
Full
Oct 21
Last Quarter
Oct 27
New

Hourly Weather History & Observations

Time (CDT) Temp. Dew Point Humidity Pressure Visibility Wind Dir Wind Speed Gust Speed Precip Events Conditions
12:15 AM 55.4 °F 51.8 °F 88% 29.90 in 10.0 mi NNW 18.4 mph 21.9 mph N/A   Overcast
12:16 AM 55.4 °F 51.8 °F 88% 29.90 in 10.0 mi NNW 17.3 mph 21.9 mph N/A   Overcast
12:35 AM 53.6 °F 50.0 °F 88% 29.90 in 1.0 mi NNW 13.8 mph 20.7 mph N/A   Overcast
12:36 AM 53.6 °F 50.0 °F 88% 29.90 in 10.0 mi NNW 13.8 mph 20.7 mph N/A   Overcast
12:55 AM 53.6 °F 50.0 °F 88% 29.89 in 10.0 mi North 8.1 mph 13.8 mph N/A   Overcast
1:15 AM 53.6 °F 50.0 °F 88% 29.92 in 10.0 mi NNW 8.1 mph - N/A   Unknown
1:35 AM 53.6 °F 51.8 °F 94% 29.95 in 10.0 mi NW 6.9 mph - N/A   Overcast
1:55 AM 53.6 °F 50.0 °F 88% 29.96 in 10.0 mi WNW 5.8 mph - N/A   Overcast
1:56 AM 53.6 °F 50.0 °F 88% 29.97 in 10.0 mi West 5.8 mph - N/A   Overcast
2:15 AM 53.6 °F 50.0 °F 88% 30.03 in 7.0 mi West 16.1 mph 19.6 mph N/A   Overcast
2:16 AM 53.6 °F 50.0 °F 88% 30.02 in 7.0 mi West 13.8 mph 19.6 mph N/A   Overcast
2:35 AM 51.8 °F 48.2 °F 88% 29.98 in 10.0 mi NW 11.5 mph - N/A Rain Light Rain
2:36 AM 51.8 °F 48.2 °F 88% 29.98 in 10.0 mi NW 10.4 mph - N/A Rain Light Rain
2:55 AM 51.8 °F 50.0 °F 94% 29.92 in 10.0 mi NNW 15.0 mph - N/A Rain Light Rain
2:56 AM 51.8 °F 50.0 °F 94% 29.91 in 10.0 mi North 12.7 mph 19.6 mph N/A Rain Light Rain
3:15 AM 51.8 °F 50.0 °F 94% 29.98 in 7.0 mi WNW 9.2 mph - N/A Rain Light Rain
3:35 AM 51.8 °F 50.0 °F 94% 29.96 in 10.0 mi NNW 10.4 mph - N/A   Overcast
3:55 AM 51.8 °F 50.0 °F 94% 29.96 in 10.0 mi NNW 8.1 mph - N/A   Overcast
3:56 AM 51.8 °F 50.0 °F 94% 29.96 in 10.0 mi NNW 6.9 mph - N/A   Overcast
4:15 AM 51.8 °F 50.0 °F 94% 29.97 in 10.0 mi North 4.6 mph - N/A   Light Drizzle
4:16 AM 51.8 °F 50.0 °F 94% 29.97 in 10.0 mi North 5.8 mph - N/A   Light Drizzle
4:35 AM 51.8 °F 50.0 °F 94% 29.99 in 10.0 mi NW 10.4 mph 17.3 mph 0.01 in Rain Light Rain
4:55 AM 51.8 °F 50.0 °F 94% 29.99 in 10.0 mi North 5.8 mph - N/A Rain Rain
5:15 AM 51.8 °F 50.0 °F 94% 29.99 in 10.0 mi NW 10.4 mph - N/A Rain Light Rain
5:16 AM 51.8 °F 50.0 °F 94% 30.00 in 10.0 mi NW 10.4 mph - N/A Rain Light Rain
5:36 AM 51.8 °F 50.0 °F 94% 29.99 in 10.0 mi NNW 11.5 mph 21.9 mph N/A   Scattered Clouds
5:55 AM 51.8 °F 48.2 °F 88% 29.91 in 10.0 mi NE 11.5 mph 19.6 mph N/A   Scattered Clouds
6:15 AM 51.8 °F 48.2 °F 88% 30.00 in 10.0 mi NNW 9.2 mph 16.1 mph N/A Rain Light Rain
6:16 AM 51.8 °F 48.2 °F 88% 29.99 in 10.0 mi NNW 9.2 mph 16.1 mph N/A   Scattered Clouds
6:38 AM 51.8 °F 48.2 °F 88% 29.98 in 10.0 mi North - - N/A   Scattered Clouds
6:55 AM 51.8 °F 48.2 °F 88% 30.00 in 10.0 mi NNW 6.9 mph - N/A   Mostly Cloudy
7:15 AM 51.8 °F 48.2 °F 88% 29.98 in 10.0 mi North 8.1 mph - N/A   Overcast
7:16 AM 51.8 °F 48.2 °F 88% 29.98 in 10.0 mi North 8.1 mph - N/A   Overcast
7:35 AM 50.0 °F 48.2 °F 94% 29.96 in 10.0 mi North 9.2 mph 16.1 mph N/A   Overcast
7:55 AM 50.0 °F 48.2 °F 94% 29.96 in 10.0 mi NNE 13.8 mph 17.3 mph N/A Thunderstorm Unknown
7:56 AM 50.0 °F 48.2 °F 94% 29.96 in 10.0 mi NNE 12.7 mph 17.3 mph N/A Thunderstorm Unknown
8:15 AM 50.0 °F 48.2 °F 94% 29.98 in 10.0 mi North 9.2 mph - N/A Rain Light Rain
8:35 AM 50.0 °F 48.2 °F 94% 30.00 in 7.0 mi Calm Calm - N/A Rain Rain
8:55 AM 51.8 °F 48.2 °F 88% 30.00 in 10.0 mi North 5.8 mph - N/A Rain , Thunderstorm Rain
9:15 AM 51.8 °F 48.2 °F 88% 30.00 in 10.0 mi North 6.9 mph - N/A Rain Rain
9:16 AM 51.8 °F 48.2 °F 88% 30.00 in 10.0 mi North 6.9 mph - N/A Rain Rain
9:35 AM 51.8 °F 48.2 °F 88% 30.01 in 10.0 mi North 6.9 mph - N/A Thunderstorm Unknown
9:55 AM 51.8 °F 48.2 °F 88% 30.02 in 10.0 mi North 6.9 mph - N/A   Light Drizzle
9:56 AM 51.8 °F 48.2 °F 88% 30.02 in 10.0 mi North 5.8 mph - N/A   Light Drizzle
10:15 AM 50.0 °F 48.2 °F 94% 30.08 in 10.0 mi NW 4.6 mph - N/A Rain Light Rain
10:35 AM 50.0 °F 48.2 °F 94% 30.02 in 10.0 mi NNE 10.4 mph - N/A Rain Light Rain
10:36 AM 50.0 °F 48.2 °F 94% 30.02 in 10.0 mi NNE 9.2 mph - N/A Rain Light Rain
10:55 AM 50.0 °F 48.2 °F 94% 30.06 in 10.0 mi NW 10.4 mph - N/A Rain Light Rain
11:15 AM 50.0 °F 48.2 °F 94% 30.00 in 10.0 mi NNE 11.5 mph 18.4 mph N/A Rain Rain
11:16 AM 50.0 °F 48.2 °F 94% 30.00 in 10.0 mi North 8.1 mph 18.4 mph N/A Rain Rain
11:35 AM 50.0 °F 48.2 °F 94% 30.04 in 10.0 mi NNE 5.8 mph 16.1 mph N/A Rain Rain
11:55 AM 50.0 °F 48.2 °F 94% 30.04 in 10.0 mi North 6.9 mph - N/A Rain Rain
12:15 PM 50.0 °F 48.2 °F 94% 30.02 in 10.0 mi North 6.9 mph - N/A Rain Light Rain
12:35 PM 50.0 °F 48.2 °F 94% 30.01 in 10.0 mi North 10.4 mph 16.1 mph N/A   Overcast
12:36 PM 50.0 °F 48.2 °F 94% 30.01 in 10.0 mi North 10.4 mph - N/A   Overcast
12:55 PM 50.0 °F 48.2 °F 94% 30.00 in 10.0 mi North 9.2 mph 17.3 mph N/A Rain Light Rain
1:15 PM 50.0 °F 48.2 °F 94% 30.00 in 10.0 mi North 8.1 mph 19.6 mph N/A Rain Light Rain
1:35 PM 50.0 °F 48.2 °F 94% 29.99 in 10.0 mi NNE 8.1 mph - N/A Rain Rain
1:56 PM 50.0 °F 48.2 °F 94% 30.00 in 10.0 mi NNE 9.2 mph - N/A Rain Light Rain
2:15 PM 50.0 °F 48.2 °F 94% 30.00 in 10.0 mi NNE 10.4 mph - N/A Rain Light Rain
2:35 PM 50.0 °F 48.2 °F 94% 29.99 in 10.0 mi NNE 8.1 mph 16.1 mph N/A Rain Light Rain
2:55 PM 50.0 °F 48.2 °F 94% 30.01 in 10.0 mi North 4.6 mph - N/A Rain Rain
3:15 PM 50.0 °F 48.2 °F 94% 30.00 in 10.0 mi NNE 6.9 mph - N/A Rain Rain
3:16 PM 50.0 °F 48.2 °F 94% 30.00 in 10.0 mi North 5.8 mph - N/A Rain Rain
3:35 PM 50.0 °F 48.2 °F 94% 30.02 in 10.0 mi North 6.9 mph - N/A Rain Rain
3:36 PM 50.0 °F 48.2 °F 94% 30.02 in 10.0 mi North 8.1 mph - N/A Rain Rain
3:55 PM 50.0 °F 48.2 °F 94% 30.02 in 10.0 mi North 5.8 mph - N/A Rain Rain
4:15 PM 50.0 °F 48.2 °F 94% 30.00 in 10.0 mi NNE 12.7 mph 18.4 mph N/A Rain Light Rain
4:16 PM 50.0 °F 48.2 °F 94% 29.99 in 10.0 mi NNE 11.5 mph 18.4 mph N/A Rain Light Rain
4:35 PM 50.0 °F 48.2 °F 94% 29.98 in 10.0 mi NE 12.7 mph 18.4 mph N/A Rain Light Rain
4:55 PM 50.0 °F 48.2 °F 94% 29.98 in 10.0 mi NE 10.4 mph - N/A Rain Rain
5:15 PM 50.0 °F 48.2 °F 94% 29.98 in 10.0 mi NNE 13.8 mph 18.4 mph N/A Rain Light Rain
5:35 PM 50.0 °F 48.2 °F 94% 29.99 in 10.0 mi NNE 9.2 mph - N/A   Overcast
5:55 PM 50.0 °F 48.2 °F 94% 29.99 in 10.0 mi NNE 13.8 mph 18.4 mph N/A   Overcast
6:15 PM 50.0 °F 48.2 °F 94% 29.98 in 10.0 mi NE 11.5 mph - N/A Rain Light Rain
6:35 PM 50.0 °F 48.2 °F 94% 29.98 in 10.0 mi NE 10.4 mph 18.4 mph N/A Rain Light Rain
6:36 PM 50.0 °F 48.2 °F 94% 29.98 in 10.0 mi NE 11.5 mph 18.4 mph N/A Rain Light Rain
6:55 PM 50.0 °F 48.2 °F 94% 29.98 in 10.0 mi NE 11.5 mph - N/A Rain Light Rain
7:15 PM 50.0 °F 48.2 °F 94% 29.99 in 10.0 mi NNE 10.4 mph - N/A   Drizzle
7:16 PM 50.0 °F 48.2 °F 94% 29.99 in 10.0 mi NNE 10.4 mph - N/A   Light Drizzle
7:35 PM 48.2 °F 48.2 °F 100% 29.99 in 10.0 mi NNE 11.5 mph 17.3 mph N/A   Light Drizzle
7:36 PM 48.2 °F 48.2 °F 100% 30.00 in 10.0 mi NNE 10.4 mph 17.3 mph N/A   Light Drizzle
7:55 PM 48.2 °F 46.4 °F 93% 29.98 in 10.0 mi NE 12.7 mph 17.3 mph N/A Rain Light Rain
8:15 PM 48.2 °F 46.4 °F 93% 29.99 in 10.0 mi NNE 6.9 mph - N/A   Drizzle
8:16 PM 48.2 °F 46.4 °F 93% 29.99 in 10.0 mi NNE 9.2 mph - N/A   Drizzle
8:35 PM 48.2 °F 46.4 °F 93% 30.00 in 7.0 mi North 5.8 mph - N/A   Drizzle
8:55 PM 48.2 °F 46.4 °F 93% 30.01 in 7.0 mi North 6.9 mph - N/A   Light Drizzle
8:56 PM 48.2 °F 46.4 °F 93% 30.01 in 7.0 mi North 6.9 mph - N/A   Light Drizzle
9:15 PM 48.2 °F 46.4 °F 93% 30.02 in 7.0 mi North 6.9 mph - N/A   Light Drizzle
9:35 PM 48.2 °F 46.4 °F 93% 30.02 in 7.0 mi North 8.1 mph - N/A   Light Drizzle
9:36 PM 48.2 °F 46.4 °F 93% 30.02 in 10.0 mi North 8.1 mph - N/A   Light Drizzle
9:55 PM 48.2 °F 46.4 °F 93% 30.02 in 10.0 mi NNE 8.1 mph - N/A Rain Light Rain
10:15 PM 48.2 °F 46.4 °F 93% 30.02 in 10.0 mi North 6.9 mph - N/A   Overcast
10:16 PM 48.2 °F 46.4 °F 93% 30.02 in 10.0 mi North 6.9 mph - N/A   Overcast
10:35 PM 48.2 °F 48.2 °F 100% 30.01 in 10.0 mi North 6.9 mph - N/A   Overcast
10:55 PM 48.2 °F 46.4 °F 93% 30.02 in 10.0 mi NNE 8.1 mph - N/A   Overcast
11:15 PM 50.0 °F 46.4 °F 87% 30.02 in 10.0 mi North 6.9 mph - N/A   Overcast
11:37 PM 50.0 °F 48.2 °F 94% 30.00 in 10.0 mi North - - N/A   Overcast
11:55 PM 50.0 °F 46.4 °F 87% 30.00 in 10.0 mi North 9.2 mph - N/A   Overcast